• In Latvia
  • List of Countries
  • For 7 days
  • Water Temperature
  • Satellite Maps
  • Weather Map
  • Weather Widgets
  • user-avatar
    Login

    Hourly Weather Serowe

    Today, 18 February, Sunday

    Time Temperature Precipitation Wind Pressure Humidity
    00:00 +26°C° 0 mm 2 mps 665 mmHg 58%
    01:00 +25°C° 0 mm 2 mps 665 mmHg 62%
    02:00 +25°C° 0 mm 3 mps 665 mmHg 65%
    03:00 +24°C° 0.5 mm 3 mps 665 mmHg 70%
    04:00 +22°C° 0.5 mm 3 mps 665 mmHg 75%
    05:00 +22°C° 0.5 mm 3 mps 665 mmHg 80%
    06:00 +22°C° 1.4 mm 4 mps 665 mmHg 79%
    07:00 +23°C° 1.4 mm 5 mps 666 mmHg 77%
    08:00 +23°C° 1.4 mm 6 mps 666 mmHg 76%
    09:00 +23°C° 1 mm 6 mps 666 mmHg 76%
    10:00 +24°C° 1 mm 6 mps 666 mmHg 75%
    11:00 +25°C° 1 mm 5 mps 666 mmHg 75%
    12:00 +26°C° 0.6 mm 5 mps 666 mmHg 68%
    13:00 +28°C° 0.6 mm 4 mps 665 mmHg 62%
    14:00 +29°C° 0.6 mm 4 mps 665 mmHg 55%
    15:00 +29°C° 0.7 mm 4 mps 665 mmHg 55%
    16:00 +29°C° 0.7 mm 3 mps 664 mmHg 55%
    17:00 +29°C° 0.7 mm 3 mps 664 mmHg 54%
    18:00 +27°C° 1 mm 3 mps 664 mmHg 61%
    19:00 +26°C° 1 mm 3 mps 664 mmHg 68%
    20:00 +24°C° 1 mm 3 mps 664 mmHg 74%
    21:00 +24°C° 0.3 mm 3 mps 664 mmHg 76%
    22:00 +24°C° 0.3 mm 2 mps 665 mmHg 78%
    23:00 +23°C° 0.3 mm 2 mps 665 mmHg 80%

    Tomorrow, 19 February, Monday

    Time Temperature Precipitation Wind Pressure Humidity
    00:00 +23°C° 0.3 mm 2 mps 665 mmHg 81%
    01:00 +23°C° 0.3 mm 2 mps 664 mmHg 83%
    02:00 +21°C° 0.3 mm 2 mps 664 mmHg 85%
    03:00 +21°C° 0.4 mm 2 mps 664 mmHg 86%
    04:00 +21°C° 0.4 mm 2 mps 664 mmHg 88%
    05:00 +21°C° 0.4 mm 2 mps 664 mmHg 90%
    06:00 +23°C° 0.1 mm 2 mps 665 mmHg 85%
    07:00 +23°C° 0.1 mm 2 mps 665 mmHg 80%
    08:00 +24°C° 0.1 mm 3 mps 666 mmHg 76%
    09:00 +26°C° 0.8 mm 3 mps 666 mmHg 69%
    10:00 +27°C° 0.8 mm 3 mps 666 mmHg 63%
    11:00 +28°C° 0.8 mm 3 mps 666 mmHg 57%
    12:00 +29°C° 1.7 mm 3 mps 666 mmHg 57%
    13:00 +29°C° 1.7 mm 3 mps 665 mmHg 56%
    14:00 +30°C° 1.7 mm 2 mps 664 mmHg 55%
    15:00 +29°C° 2.5 mm 2 mps 664 mmHg 59%
    16:00 +28°C° 2.5 mm 2 mps 664 mmHg 62%
    17:00 +28°C° 2.5 mm 2 mps 664 mmHg 65%
    18:00 +27°C° 0.8 mm 2 mps 664 mmHg 68%
    19:00 +26°C° 0.8 mm 2 mps 664 mmHg 72%
    20:00 +25°C° 0.8 mm 1 mps 665 mmHg 75%
    21:00 +25°C° 0.3 mm 1 mps 665 mmHg 76%
    22:00 +25°C° 0.3 mm 1 mps 665 mmHg 76%
    23:00 +25°C° 0.3 mm 1 mps 666 mmHg 76%

    Day after tomorrow, 20 February, Tuesday

    Time Temperature Precipitation Wind Pressure Humidity
    00:00 +24°C° 0.6 mm 2 mps 665 mmHg 78%
    01:00 +24°C° 0.6 mm 2 mps 665 mmHg 80%
    02:00 +22°C° 0.6 mm 3 mps 664 mmHg 82%
    03:00 +22°C° 0.1 mm 3 mps 664 mmHg 84%
    04:00 +23°C° 0.1 mm 2 mps 664 mmHg 86%
    05:00 +21°C° 0.1 mm 2 mps 664 mmHg 88%
    06:00 +22°C° 0.3 mm 3 mps 665 mmHg 86%
    07:00 +22°C° 0.3 mm 3 mps 665 mmHg 85%
    08:00 +22°C° 0.3 mm 4 mps 666 mmHg 84%
    09:00 +23°C° 0.3 mm 4 mps 666 mmHg 79%
    10:00 +26°C° 0.3 mm 4 mps 666 mmHg 74%
    11:00 +27°C° 0.3 mm 4 mps 666 mmHg 68%
    12:00 +28°C° 0.8 mm 4 mps 666 mmHg 65%
    13:00 +28°C° 0.8 mm 4 mps 665 mmHg 61%
    14:00 +29°C° 0.8 mm 4 mps 664 mmHg 58%
    15:00 +29°C° 0.7 mm 4 mps 664 mmHg 60%
    16:00 +28°C° 0.7 mm 4 mps 664 mmHg 61%
    17:00 +28°C° 0.7 mm 4 mps 663 mmHg 63%
    18:00 +27°C° 0.5 mm 3 mps 664 mmHg 68%
    19:00 +26°C° 0.5 mm 3 mps 664 mmHg 73%
    20:00 +25°C° 0.5 mm 3 mps 664 mmHg 77%
    21:00 +24°C° 0.6 mm 3 mps 665 mmHg 79%
    22:00 +24°C° 0.6 mm 3 mps 665 mmHg 81%
    23:00 +23°C° 0.6 mm 4 mps 665 mmHg 82%

    21 February, Wednesday

    Time Temperature Precipitation Wind Pressure Humidity
    00:00 +22°C° 0.4 mm 4 mps 665 mmHg 83%
    01:00 +22°C° 0.4 mm 4 mps 664 mmHg 84%
    02:00 +21°C° 0.4 mm 3 mps 664 mmHg 85%
    03:00 +21°C° 0.1 mm 4 mps 664 mmHg 86%
    04:00 +21°C° 0.1 mm 4 mps 664 mmHg 88%
    05:00 +21°C° 0.1 mm 4 mps 664 mmHg 89%
    06:00 +21°C° 0 mm 4 mps 664 mmHg 87%
    07:00 +22°C° 0 mm 4 mps 665 mmHg 84%
    08:00 +22°C° 0 mm 5 mps 666 mmHg 81%
    09:00 +25°C° 0 mm 5 mps 666 mmHg 74%
    10:00 +26°C° 0 mm 4 mps 666 mmHg 67%
    11:00 +28°C° 0 mm 4 mps 666 mmHg 59%
    12:00 +28°C° 0.2 mm 4 mps 666 mmHg 57%
    13:00 +29°C° 0.2 mm 4 mps 665 mmHg 55%
    14:00 +30°C° 0.2 mm 3 mps 664 mmHg 52%
    15:00 +29°C° 0.3 mm 3 mps 664 mmHg 54%
    16:00 +29°C° 0.3 mm 3 mps 664 mmHg 55%
    17:00 +28°C° 0.3 mm 3 mps 663 mmHg 57%
    18:00 +27°C° 0.8 mm 3 mps 664 mmHg 64%
    19:00 +25°C° 0.8 mm 4 mps 664 mmHg 71%
    20:00 +23°C° 0.8 mm 4 mps 664 mmHg 78%
    21:00 +22°C° 1 mm 4 mps 664 mmHg 81%
    22:00 +22°C° 1 mm 5 mps 664 mmHg 83%
    23:00 +21°C° 1 mm 5 mps 665 mmHg 86%

    22 February, Thursday

    Time Temperature Precipitation Wind Pressure Humidity
    00:00 +21°C° 0.2 mm 5 mps 664 mmHg 87%
    01:00 +21°C° 0.2 mm 5 mps 664 mmHg 88%
    02:00 +20°C° 0.2 mm 4 mps 664 mmHg 89%
    03:00 +20°C° 0.2 mm 4 mps 664 mmHg 89%
    04:00 +20°C° 0.2 mm 4 mps 663 mmHg 90%
    05:00 +20°C° 0.2 mm 4 mps 663 mmHg 90%
    06:00 +20°C° 0.4 mm 4 mps 664 mmHg 90%
    07:00 +20°C° 0.4 mm 5 mps 664 mmHg 89%
    08:00 +20°C° 0.4 mm 5 mps 665 mmHg 89%
    09:00 +20°C° 0.5 mm 5 mps 665 mmHg 88%
    10:00 +19°C° 0.5 mm 5 mps 665 mmHg 88%
    11:00 +19°C° 0.5 mm 5 mps 665 mmHg 88%
    12:00 +19°C° 0.9 mm 5 mps 665 mmHg 87%
    13:00 +19°C° 0.9 mm 5 mps 664 mmHg 87%
    14:00 +19°C° 0.9 mm 5 mps 664 mmHg 87%
    15:00 +19°C° 0.4 mm 5 mps 664 mmHg 86%
    16:00 +19°C° 0.4 mm 6 mps 664 mmHg 85%
    17:00 +19°C° 0.4 mm 6 mps 664 mmHg 84%
    18:00 +19°C° 0 mm 5 mps 664 mmHg 86%
    19:00 +17°C° 0 mm 5 mps 664 mmHg 88%
    20:00 +18°C° 0 mm 4 mps 664 mmHg 90%
    21:00 +18°C° 0 mm 4 mps 664 mmHg 90%
    22:00 +18°C° 0 mm 4 mps 664 mmHg 89%
    23:00 +17°C° 0 mm 5 mps 664 mmHg 89%

    23 February, Friday

    Time Temperature Precipitation Wind Pressure Humidity
    00:00 +17°C° 0.1 mm 5 mps 664 mmHg 90%
    01:00 +17°C° 0.1 mm 5 mps 664 mmHg 90%
    02:00 +16°C° 0.1 mm 5 mps 664 mmHg 90%
    03:00 +16°C° 0.4 mm 5 mps 664 mmHg 90%
    04:00 +17°C° 0.4 mm 4 mps 664 mmHg 91%
    05:00 +17°C° 0.4 mm 4 mps 663 mmHg 91%
    06:00 +17°C° 1.1 mm 4 mps 664 mmHg 91%
    07:00 +17°C° 1.1 mm 4 mps 664 mmHg 91%
    08:00 +18°C° 1.1 mm 4 mps 664 mmHg 92%
    09:00 +18°C° 1.1 mm 4 mps 664 mmHg 91%
    10:00 +18°C° 1.1 mm 4 mps 664 mmHg 91%
    11:00 +18°C° 1.1 mm 4 mps 664 mmHg 90%
    12:00 +19°C° 1.1 mm 4 mps 664 mmHg 89%
    13:00 +19°C° 1.1 mm 4 mps 664 mmHg 88%
    14:00 +20°C° 1.1 mm 4 mps 663 mmHg 87%
    15:00 +20°C° 0.7 mm 4 mps 663 mmHg 88%
    16:00 +20°C° 0.7 mm 4 mps 663 mmHg 88%
    17:00 +20°C° 0.7 mm 4 mps 663 mmHg 88%
    18:00 +19°C° 0.1 mm 3 mps 663 mmHg 90%
    19:00 +19°C° 0.1 mm 3 mps 663 mmHg 92%
    20:00 +19°C° 0.1 mm 3 mps 663 mmHg 94%
    21:00 +19°C° 0.1 mm 3 mps 663 mmHg 94%
    22:00 +19°C° 0.1 mm 3 mps 664 mmHg 95%
    23:00 +18°C° 0.1 mm 3 mps 664 mmHg 95%
    Show more